Regional Weather Roundup
Issued by NWS Northern Indiana

Home | Current Version | Previous Version | Text Only | Print | Product List | Glossary Off
Versions: 1 2 3 4 5 6 7 8 9 10 11 12 13 14 15 16 17 18 19 20 21 22 23 24 25 26 27 28 29 30 31 32 33 34 35 36 37 38 39 40 41 42 43 44 45 46 47 48 49 50

000
ASUS43 KIWX 302010
RWRIWX

KIWX WEATHER ROUNDUP
NATIONAL WEATHER SERVICE NORTHERN INDIANA
400 PM EDT FRI SEP 30 2016

NOTE: "FAIR" INDICATES FEW OR NO CLOUDS BELOW 12,000 FEET WITH NO
SIGNIFICANT WEATHER AND/OR OBSTRUCTIONS TO VISIBILITY.

* THESE STATIONS ARE NOT UNDER NWS QUALITY CONTROL. THEY ALSO MAY NOT
  REPORT WEATHER SUCH AS PRECIPITATION OR FOG.

INZ001>027-302100-
NORTHERN INDIANA

CITY           SKY/WX    TMP DP  RH WIND       PRES   REMARKS
GARY*          CLOUDY    66  63  88 N14       30.07F
VALPARAISO     PTSUNNY   69  59  70 E15       30.05F
MICHIGAN CITY* CLOUDY    64  61  88 CALM      30.05F
LAPORTE*       CLOUDY    69  65  87 NE10      30.05F
KNOX*          CLOUDY    63  48  59 NE9       30.03F
SOUTH BEND     LGT RAIN  63  60  90 NE10      30.06F
ELKHART*       CLOUDY    63  59  88 NE14      30.06S
GOSHEN         HVY RAIN  62  59  90 NE13      30.04F VSB 1
MONTICELLO*    CLOUDY    66  55  66 NE8       30.01S
LOGANSPORT*    PTSUNNY   64  59  82 NE3       30.03S
ROCHESTER*     PTSUNNY   66  63  88 NE7       30.02F
WARSAW*        LGT RAIN  63  57  82 NE7       30.03F
ANGOLA*          N/A     63  54  72 E10       30.06S
FORT WAYNE     LGT RAIN  63  60  90 E10       30.04R
HUNTINGTON*    CLOUDY    64  60  88 E8        30.03R
PERU/GRISSOM   DRIZZLE   64  62  93 NE10      30.00F
MARION*        CLOUDY    63  59  87 NE8       30.01S FOG

$$
INZ028>050-302100-
CENTRAL INDIANA

CITY           SKY/WX    TMP DP  RH WIND       PRES   REMARKS
LAFAYETTE      CLOUDY    64  59  83 NE7       30.00S
KOKOMO*        CLOUDY    66  59  77 NE14      30.02S
MUNCIE*        HVY RAIN  57  54  89 CALM      30.00S VSB 3/4
INDIANAPOLIS   PTSUNNY   67  56  67 CALM      29.97F

$$
MIZ043>046-050>051-056>058-064>065-071>073-077>080-302100-
SOUTHWEST LOWER MICHIGAN

CITY           SKY/WX    TMP DP  RH WIND       PRES   REMARKS
BATTLE CREEK   CLOUDY    60  58  92 NE13G20   30.10F
BENTON HARBOR  CLOUDY    64  57  78 NE12      30.08S
COLDWATER*     CLOUDY    61  59  94 NE13G24   30.08F
HILLSDALE*     LGT RAIN  59  57  94 NE9G16    30.05F
HOLLAND        CLOUDY    63  57  81 NE9G18    30.12F
GRAND RAPIDS   CLOUDY    62  56  80 E14G23    30.14S
KALAMAZOO      LGT RAIN  60  56  86 NE12G18   30.10F FOG
STURGIS*       CLOUDY    62  58  88 NE14G20   30.06F
THREE RIVERS*  CLOUDY    63  59  89 NE10      30.07F

$$
OHZ001>008-015>018-024>025-302100-
NORTHWEST OHIO

CITY           SKY/WX    TMP DP  RH WIND       PRES   REMARKS
WAUSEON*       CLOUDY    63  61  94 E12       30.07S
DEFIANCE       CLOUDY    64  59  83 NE8       30.05S
FINDLAY        CLOUDY    65  56  72 E9        30.04R
TOLEDO EXPRESS CLOUDY    62  62 100 E7        30.07R
TOLEDO METCALF CLOUDY    63  61  93 E8        30.08F
LIMA           RAIN      60  60 100 E5        30.05R FOG

$$
AND FOR LAKE MICHIGAN COASTAL AND OPEN LAKE BUOY OBSERVATIONS

STATION/POSITION TEMP    WIND        PRES    VSBY  WAVE
                 AIR SEA DIR/SP/G                  HT/PER
                 (F)     (DEG/KT/KT) (MB)    (MI)  (FT/S)
CALUMET HARBOR    63      10/ 11/ 14 1018.0S
MICHIGAN CITY     61      40/ 12/ 14   N/A
BURNS HARBOR      64      50/ 12/ 19 1017.9
SAINT JOSEPH      65      40/  5/ 11 1018.3
SOUTH LAKE BUOY   63 67   50/ 19/ 23 1018.7F         4/ 6
4 MI NW BRIDGMAN  59 52   40/  8/ 12 1018.2          4/ 5
MICHIGAN CITY     64 64   50/ 14/ 17   N/A           5/ 7

$$
&&



USA.gov is the U.S. government's official web portal to all federal, state and local government web resources and services.